Weather History for Crosby, ND

Change the Weather History Date:

Tuesday, March 5, 2013

  Actual Average (KISN) Record (KISN)
Temperature  
Mean Temperature 8 °F 24 °F  
Max Temperature 19 °F 34 °F 70 °F (2000)
Min Temperature -4 °F 14 °F -30 °F (2003)
Degree Days  
Heating Degree Days 58 41  
Month to date heating degree days 209  
Since 1 July heating degree days 6977  
Cooling Degree Days 0 0  
Month to date cooling degree days 0  
Year to date cooling degree days 0  
Moisture  
Dew Point 2 °F    
Average Humidity 82    
Maximum Humidity 92    
Minimum Humidity 63    
Precipitation  
Precipitation 0.02 in 0.02 in 0.71 in (1944)
Month to date precipitation 0.10  
Year to date precipitation 1.08  
Snow  
Snow 0.00 in 0.20 in 6.70 in (1944)
Snow Depth -    
Sea Level Pressure  
Sea Level Pressure 30.36 in    
Wind  
Wind Speed 9 mph (WNW)    
Max Wind Speed 17 mph    
Max Gust Speed -    
Visibility 10 miles    
Events Rain , Snow    
T = Trace of Precipitation, MM = Missing Value Source: NWS Daily Summary

Daily Weather History Graph

Daily Weather History Graph

Search for Another Location

Airport:

Trip Planner

Search our weather history database for the weather conditions in past years. The results will help you decide how hot, cold, wet, or windy it might be!

Date:

Astronomy

Mar. 05, 2013 Rise Set
Actual Time 7:26 AM CST 6:43 PM CST
Civil Twilight 6:54 AM CST 7:15 PM CST
Nautical Twilight 6:18 AM CST 7:51 PM CST
Astronomical Twilight 5:41 AM CST 8:28 PM CST
Moon 3:03 AM CST (3/5) 12:01 PM CST (3/5)
Length of Visible Light 12h 20m
Length of Day
11h 16m
Last Quarter, 40% of the Moon is Illuminated
Mar 5
Last Quarter
Mar 11
New
Mar 19
First Quarter
Mar 27
Full
Apr 2
Last Quarter

Hourly Weather History & Observations

Time (CST) Temp. Windchill Dew Point Humidity Pressure Visibility Wind Dir Wind Speed Gust Speed Precip Events Conditions
12:15 AM 5.0 °F -13.0 °F 1.4 °F 85% 30.29 in 10.0 mi NW 15.0 mph - N/A Rain Light Freezing Rain
12:35 AM 5.0 °F -14.2 °F 1.4 °F 85% 30.29 in 7.0 mi NW 17.3 mph - N/A Rain Light Freezing Rain
12:55 AM 5.0 °F -14.2 °F 1.4 °F 85% 30.30 in 7.0 mi NW 17.3 mph - N/A Rain Light Freezing Rain
1:15 AM 5.0 °F -13.6 °F 1.4 °F 85% 30.30 in 8.0 mi NW 16.1 mph - N/A   Scattered Clouds
1:35 AM 5.0 °F -14.2 °F -0.4 °F 78% 30.31 in 8.0 mi NW 17.3 mph - N/A   Partly Cloudy
1:55 AM 5.0 °F -14.2 °F 1.4 °F 85% 30.32 in 8.0 mi NW 17.3 mph - N/A   Partly Cloudy
2:15 AM 3.2 °F -15.3 °F -0.4 °F 85% 30.33 in 10.0 mi NW 15.0 mph - N/A   Clear
2:35 AM 3.2 °F -15.3 °F -0.4 °F 85% 30.33 in 10.0 mi NW 15.0 mph - N/A   Clear
2:55 AM 1.4 °F -16.1 °F -0.4 °F 92% 30.34 in 10.0 mi WNW 12.7 mph - N/A   Clear
3:15 AM 1.4 °F -15.3 °F -0.4 °F 92% 30.34 in 8.0 mi WNW 11.5 mph - N/A   Scattered Clouds
3:35 AM 1.4 °F -16.1 °F -0.4 °F 92% 30.34 in 10.0 mi NW 12.7 mph - N/A   Scattered Clouds
3:55 AM 5.0 °F -11.6 °F 1.4 °F 85% 30.34 in 10.0 mi NW 12.7 mph - N/A   Overcast
4:15 AM 6.8 °F -7.8 °F 3.2 °F 85% 30.34 in 10.0 mi NW 10.4 mph - N/A   Overcast
4:35 AM 6.8 °F -6.9 °F 1.4 °F 79% 30.35 in 10.0 mi NW 9.2 mph - N/A   Overcast
4:55 AM 6.8 °F -7.8 °F 3.2 °F 85% 30.35 in 10.0 mi NW 10.4 mph - N/A   Overcast
5:15 AM 5.0 °F -10.0 °F -0.4 °F 78% 30.36 in 10.0 mi WNW 10.4 mph - N/A   Scattered Clouds
5:35 AM 5.0 °F -10.0 °F 1.4 °F 85% 30.36 in 10.0 mi NW 10.4 mph - N/A   Mostly Cloudy
5:55 AM 6.8 °F -8.6 °F 3.2 °F 85% 30.37 in 10.0 mi NW 11.5 mph - N/A   Overcast
6:15 AM 6.8 °F -7.8 °F 1.4 °F 79% 30.37 in 10.0 mi NW 10.4 mph - N/A   Overcast
6:35 AM 5.0 °F -9.1 °F 1.4 °F 85% 30.37 in 10.0 mi WNW 9.2 mph - N/A   Overcast
7:35 AM 6.8 °F -4.8 °F 3.2 °F 85% 30.38 in 10.0 mi NW 6.9 mph - N/A Snow Light Snow
7:55 AM 6.8 °F -3.5 °F 1.4 °F 79% 30.39 in 10.0 mi NW 5.8 mph - N/A Snow Light Snow
8:15 AM 5.0 °F -6.9 °F 1.4 °F 85% 30.39 in 10.0 mi WNW 6.9 mph - N/A   Overcast
8:35 AM 5.0 °F -6.9 °F 1.4 °F 85% 30.39 in 10.0 mi NW 6.9 mph - N/A   Overcast
8:55 AM 3.2 °F -10.3 °F -0.4 °F 85% 30.40 in 10.0 mi NW 8.1 mph - N/A   Mostly Cloudy
9:15 AM 5.0 °F -6.9 °F 1.4 °F 85% 30.40 in 10.0 mi WNW 6.9 mph - N/A   Scattered Clouds
9:35 AM 5.0 °F -6.9 °F 1.4 °F 85% 30.40 in 10.0 mi WNW 6.9 mph - N/A   Clear
9:55 AM 6.8 °F -4.8 °F 3.2 °F 85% 30.41 in 10.0 mi WNW 6.9 mph - N/A   Partly Cloudy
10:15 AM 6.8 °F -5.9 °F 3.2 °F 85% 30.41 in 10.0 mi WNW 8.1 mph - N/A   Mostly Cloudy
10:35 AM 8.6 °F -2.6 °F 5.0 °F 85% 30.41 in 10.0 mi West 6.9 mph - N/A   Mostly Cloudy
10:55 AM 10.4 °F 2.2 °F 6.8 °F 85% 30.41 in 10.0 mi West 4.6 mph - N/A   Overcast
11:15 AM 10.4 °F 2.2 °F 6.8 °F 85% 30.41 in 10.0 mi WNW 4.6 mph - N/A Snow Light Snow
11:35 AM 10.4 °F 2.2 °F 6.8 °F 85% 30.40 in 6.0 mi WNW 4.6 mph - N/A Snow Light Snow
11:55 AM 12.2 °F 4.3 °F 8.6 °F 85% 30.40 in 7.0 mi NW 4.6 mph - 0.01 in Snow Light Snow
12:15 PM 12.2 °F 6.1 °F 6.8 °F 79% 30.40 in 8.0 mi NW 3.5 mph - N/A Snow Light Snow
12:35 PM 12.2 °F 4.3 °F 8.6 °F 85% 30.40 in 7.0 mi North 4.6 mph - 0.01 in Snow Light Snow
12:55 PM 14.0 °F 8.2 °F 8.6 °F 79% 30.40 in 10.0 mi North 3.5 mph - 0.01 in Snow Light Snow
1:15 PM 14.0 °F - 8.6 °F 79% 30.39 in 10.0 mi Calm Calm - N/A Snow Light Snow
1:35 PM 14.0 °F - 8.6 °F 79% 30.39 in 10.0 mi Calm Calm - N/A   Overcast
1:55 PM 14.0 °F - 8.6 °F 79% 30.38 in 10.0 mi Calm Calm - N/A   Overcast
2:15 PM 14.0 °F - 8.6 °F 79% 30.37 in 10.0 mi Calm Calm - N/A   Scattered Clouds
2:35 PM 14.0 °F - 8.6 °F 79% 30.37 in 10.0 mi Calm Calm - N/A   Clear
2:55 PM 14.0 °F - 8.6 °F 79% 30.37 in 10.0 mi Calm Calm - N/A   Clear
3:15 PM 19.4 °F - 8.6 °F 63% 30.37 in 10.0 mi Calm Calm - N/A   Clear
3:35 PM 19.4 °F - 8.6 °F 63% 30.37 in 10.0 mi Calm Calm - N/A   Clear
3:55 PM 14.0 °F - 8.6 °F 79% 30.37 in 10.0 mi Calm Calm - N/A   Clear
4:15 PM 14.0 °F - 8.6 °F 79% 30.36 in 10.0 mi Calm Calm - N/A   Clear
4:35 PM 14.0 °F - 8.6 °F 79% 30.36 in 10.0 mi Calm Calm - N/A   Clear
4:55 PM 14.0 °F - 6.8 °F 73% 30.36 in 10.0 mi Calm Calm - N/A   Clear
5:15 PM 10.4 °F 4.0 °F 6.8 °F 85% 30.36 in 10.0 mi East 3.5 mph - N/A   Clear
5:35 PM 8.6 °F 2.0 °F 5.0 °F 85% 30.35 in 10.0 mi East 3.5 mph - N/A   Clear
5:55 PM 6.8 °F -2.0 °F 5.0 °F 92% 30.34 in 10.0 mi East 4.6 mph - N/A   Clear
6:15 PM 6.8 °F - 1.4 °F 79% 30.35 in 10.0 mi Calm Calm - N/A   Clear
6:35 PM 5.0 °F -4.1 °F 1.4 °F 85% 30.34 in 10.0 mi East 4.6 mph - N/A   Clear
6:55 PM -0.4 °F -10.4 °F -2.2 °F 92% 30.34 in 10.0 mi ESE 4.6 mph - N/A   Clear
7:15 PM 3.2 °F -7.8 °F -0.4 °F 85% 30.34 in 10.0 mi ESE 5.8 mph - N/A   Clear
7:35 PM 1.4 °F -6.2 °F -0.4 °F 92% 30.34 in - SE 3.5 mph - N/A   Unknown
7:55 PM -0.4 °F - -2.2 °F 92% 30.34 in 7.0 mi Calm Calm - N/A   Clear
8:15 PM -2.2 °F -10.4 °F -5.8 °F 85% 30.34 in 5.0 mi South 3.5 mph - N/A   Clear
8:35 PM -2.2 °F -10.4 °F -7.6 °F 78% 30.34 in 10.0 mi South 3.5 mph - N/A   Clear
8:55 PM -2.2 °F -10.4 °F -7.6 °F 78% 30.34 in 10.0 mi SSW 3.5 mph - N/A   Clear
9:15 PM -4.0 °F -14.6 °F -9.4 °F 78% 30.34 in 9.0 mi SSW 4.6 mph - N/A   Clear
9:35 PM -4.0 °F -17.8 °F -9.4 °F 78% 30.34 in 10.0 mi SW 6.9 mph - N/A   Clear
9:55 PM -4.0 °F -16.3 °F -9.4 °F 78% 30.34 in 10.0 mi SSW 5.8 mph - N/A   Clear
10:15 PM -2.2 °F -12.5 °F -7.6 °F 78% 30.34 in 10.0 mi SSW 4.6 mph - N/A   Clear
10:35 PM -4.0 °F -14.6 °F -9.4 °F 78% 30.34 in 10.0 mi SSW 4.6 mph - N/A   Clear
10:55 PM -2.2 °F -14.2 °F -7.6 °F 78% 30.33 in 10.0 mi South 5.8 mph - N/A   Clear
11:15 PM -2.2 °F -12.5 °F -7.6 °F 78% 30.33 in 10.0 mi South 4.6 mph - N/A   Clear
11:35 PM -2.2 °F -12.5 °F -7.6 °F 78% 30.33 in 10.0 mi South 4.6 mph - N/A   Clear
11:55 PM -4.0 °F -16.3 °F -9.4 °F 78% 30.33 in 10.0 mi SSW 5.8 mph - N/A   Mostly Cloudy